Time,TemperatureF,DewpointF,PressureIn,WindDirection,WindDirectionDegrees,WindSpeedMPH,WindSpeedGustMPH,Humidity,HourlyPrecipIn,Conditions,Clouds,dailyrainin,SolarRadiationWatts/m^2,SoftwareType,DateUTC
2013-03-08 00:01:00,11.0,7.0,-100.00,SSW,202,1.0,5.0,83,0.00,,,0.00,1.000000,,2013-03-08 06:01:00,
2013-03-08 00:11:00,11.0,7.0,-100.00,SSW,202,1.0,5.0,83,0.00,,,0.00,1.000000,,2013-03-08 06:11:00,
2013-03-08 00:22:00,11.0,7.0,-100.00,SSW,202,1.0,5.0,83,0.00,,,0.00,1.000000,,2013-03-08 06:22:00,
2013-03-08 00:32:00,11.0,7.0,-100.00,SSW,202,1.0,5.0,83,0.00,,,0.00,1.000000,,2013-03-08 06:32:00,
2013-03-08 00:52:00,9.0,5.0,-100.00,East,96,1.0,2.0,83,0.00,,,0.00,1.000000,,2013-03-08 06:52:00,
2013-03-08 01:01:00,9.0,5.0,-100.00,East,96,1.0,2.0,83,0.00,,,0.00,1.000000,,2013-03-08 07:01:00,
2013-03-08 01:11:00,9.0,5.0,-100.00,East,96,1.0,2.0,83,0.00,,,0.00,1.000000,,2013-03-08 07:11:00,
2013-03-08 01:22:00,9.0,5.0,-100.00,East,96,1.0,2.0,83,0.00,,,0.00,1.000000,,2013-03-08 07:22:00,
2013-03-08 01:31:00,9.0,5.0,-100.00,East,96,1.0,2.0,83,0.00,,,0.00,1.000000,,2013-03-08 07:31:00,
2013-03-08 01:52:00,7.0,3.0,-100.00,NW,325,1.0,2.0,83,0.00,,,0.00,1.000000,,2013-03-08 07:52:00,
2013-03-08 02:01:00,7.0,3.0,-100.00,NW,325,1.0,2.0,83,0.00,,,0.00,1.000000,,2013-03-08 08:01:00,
2013-03-08 02:11:00,7.0,3.0,-100.00,NW,325,1.0,2.0,83,0.00,,,0.00,1.000000,,2013-03-08 08:11:00,
2013-03-08 02:22:00,7.0,3.0,-100.00,NW,325,1.0,2.0,83,0.00,,,0.00,1.000000,,2013-03-08 08:22:00,
2013-03-08 02:32:00,7.0,3.0,-100.00,NW,325,1.0,2.0,83,0.00,,,0.00,1.000000,,2013-03-08 08:32:00,
2013-03-08 02:52:00,7.0,3.0,-100.00,SSW,206,1.0,4.0,84,0.00,,,0.00,1.000000,,2013-03-08 08:52:00,
2013-03-08 03:03:00,7.0,3.0,-100.00,SSW,206,1.0,4.0,84,0.00,,,0.00,1.000000,,2013-03-08 09:03:00,
2013-03-08 03:11:00,7.0,3.0,-100.00,SSW,206,1.0,4.0,84,0.00,,,0.00,1.000000,,2013-03-08 09:11:00,
2013-03-08 03:21:00,7.0,3.0,-100.00,SSW,206,1.0,4.0,84,0.00,,,0.00,1.000000,,2013-03-08 09:21:00,
2013-03-08 03:32:00,7.0,3.0,-100.00,SSW,206,1.0,4.0,84,0.00,,,0.00,1.000000,,2013-03-08 09:32:00,
2013-03-08 04:01:00,11.0,7.0,-100.00,SSW,197,1.0,4.0,84,0.00,,,0.00,1.000000,,2013-03-08 10:01:00,
2013-03-08 04:11:00,11.0,7.0,-100.00,SSW,197,1.0,4.0,84,0.00,,,0.00,1.000000,,2013-03-08 10:11:00,
2013-03-08 04:21:00,11.0,7.0,-100.00,SSW,197,1.0,4.0,84,0.00,,,0.00,1.000000,,2013-03-08 10:21:00,
2013-03-08 04:32:00,11.0,7.0,-100.00,SSW,197,1.0,4.0,84,0.00,,,0.00,1.000000,,2013-03-08 10:32:00,
2013-03-08 05:01:00,14.0,10.0,-100.00,SSW,210,3.0,7.0,83,0.00,,,0.00,1.000000,,2013-03-08 11:01:00,
2013-03-08 05:11:00,14.0,10.0,-100.00,SSW,210,3.0,7.0,83,0.00,,,0.00,1.000000,,2013-03-08 11:11:00,
2013-03-08 05:21:00,14.0,10.0,-100.00,SSW,210,3.0,7.0,83,0.00,,,0.00,1.000000,,2013-03-08 11:21:00,
2013-03-08 05:32:00,14.0,10.0,-100.00,SSW,210,3.0,7.0,83,0.00,,,0.00,1.000000,,2013-03-08 11:32:00,
2013-03-08 05:52:00,16.0,11.0,-100.00,SW,223,2.0,7.0,80,0.00,,,0.00,1.000000,,2013-03-08 11:52:00,
2013-03-08 06:02:00,16.0,11.0,-100.00,SW,223,2.0,7.0,80,0.00,,,0.00,1.000000,,2013-03-08 12:02:00,
2013-03-08 06:11:00,16.0,11.0,-100.00,SW,223,2.0,7.0,80,0.00,,,0.00,1.000000,,2013-03-08 12:11:00,
2013-03-08 06:22:00,16.0,11.0,-100.00,SW,223,2.0,7.0,80,0.00,,,0.00,1.000000,,2013-03-08 12:22:00,
2013-03-08 06:32:00,16.0,11.0,-100.00,SW,223,2.0,7.0,80,0.00,,,0.00,1.000000,,2013-03-08 12:32:00,
2013-03-08 07:01:00,18.0,12.0,-100.00,SW,225,3.0,8.0,77,0.00,,,0.00,2.000000,,2013-03-08 13:01:00,
2013-03-08 07:11:00,18.0,12.0,-100.00,SW,225,3.0,8.0,77,0.00,,,0.00,2.000000,,2013-03-08 13:11:00,
2013-03-08 07:21:00,18.0,12.0,-100.00,SW,225,3.0,8.0,77,0.00,,,0.00,2.000000,,2013-03-08 13:21:00,
2013-03-08 07:32:00,18.0,12.0,-100.00,SW,225,3.0,8.0,77,0.00,,,0.00,2.000000,,2013-03-08 13:32:00,
2013-03-08 08:02:00,20.0,13.0,-100.00,SW,221,4.0,10.0,73,0.00,,,0.00,48.000000,,2013-03-08 14:02:00,
2013-03-08 08:11:00,20.0,13.0,-100.00,SW,221,4.0,10.0,73,0.00,,,0.00,48.000000,,2013-03-08 14:11:00,
2013-03-08 08:22:00,20.0,13.0,-100.00,SW,221,4.0,10.0,73,0.00,,,0.00,48.000000,,2013-03-08 14:22:00,
2013-03-08 08:32:00,20.0,13.0,-100.00,SW,221,4.0,10.0,73,0.00,,,0.00,48.000000,,2013-03-08 14:32:00,
2013-03-08 09:03:00,26.0,14.0,-100.00,SSW,213,5.0,13.0,60,0.00,,,0.00,178.000000,,2013-03-08 15:03:00,
2013-03-08 09:12:00,26.0,14.0,-100.00,SSW,213,5.0,13.0,60,0.00,,,0.00,178.000000,,2013-03-08 15:12:00,
2013-03-08 09:22:00,26.0,14.0,-100.00,SSW,213,5.0,13.0,60,0.00,,,0.00,178.000000,,2013-03-08 15:22:00,
2013-03-08 09:32:00,26.0,14.0,-100.00,SSW,213,5.0,13.0,60,0.00,,,0.00,178.000000,,2013-03-08 15:32:00,
2013-03-08 10:01:00,29.0,15.0,-100.00,SW,217,8.0,17.0,55,0.00,,,0.00,341.000000,,2013-03-08 16:01:00,
2013-03-08 10:11:00,29.0,15.0,-100.00,SW,217,8.0,17.0,55,0.00,,,0.00,341.000000,,2013-03-08 16:11:00,
2013-03-08 10:22:00,29.0,15.0,-100.00,SW,217,8.0,17.0,55,0.00,,,0.00,341.000000,,2013-03-08 16:22:00,
2013-03-08 10:32:00,29.0,15.0,-100.00,SW,217,8.0,17.0,55,0.00,,,0.00,341.000000,,2013-03-08 16:32:00,
2013-03-08 11:02:00,35.0,17.0,-100.00,SSW,208,7.0,17.0,47,0.00,,,0.00,510.000000,,2013-03-08 17:02:00,
2013-03-08 11:11:00,35.0,17.0,-100.00,SSW,208,7.0,17.0,47,0.00,,,0.00,510.000000,,2013-03-08 17:11:00,
2013-03-08 11:21:00,35.0,17.0,-100.00,SSW,208,7.0,17.0,47,0.00,,,0.00,510.000000,,2013-03-08 17:21:00,
2013-03-08 11:32:00,35.0,17.0,-100.00,SSW,208,7.0,17.0,47,0.00,,,0.00,510.000000,,2013-03-08 17:32:00,
2013-03-08 12:02:00,39.0,17.0,-100.00,SW,214,6.0,14.0,40,0.00,,,0.00,615.000000,,2013-03-08 18:02:00,
2013-03-08 12:11:00,39.0,17.0,-100.00,SW,214,6.0,14.0,40,0.00,,,0.00,615.000000,,2013-03-08 18:11:00,
2013-03-08 12:21:00,39.0,17.0,-100.00,SW,214,6.0,14.0,40,0.00,,,0.00,615.000000,,2013-03-08 18:21:00,
2013-03-08 12:32:00,39.0,17.0,-100.00,SW,214,6.0,14.0,40,0.00,,,0.00,615.000000,,2013-03-08 18:32:00,
2013-03-08 13:01:00,41.0,17.0,-100.00,SW,217,6.0,17.0,38,0.00,,,0.00,632.000000,,2013-03-08 19:01:00,
2013-03-08 13:11:00,41.0,17.0,-100.00,SW,217,6.0,17.0,38,0.00,,,0.00,632.000000,,2013-03-08 19:11:00,
2013-03-08 13:22:00,41.0,17.0,-100.00,SW,217,6.0,17.0,38,0.00,,,0.00,632.000000,,2013-03-08 19:22:00,
2013-03-08 13:32:00,41.0,17.0,-100.00,SW,217,6.0,17.0,38,0.00,,,0.00,632.000000,,2013-03-08 19:32:00,
2013-03-08 14:01:00,45.0,18.0,-100.00,SW,214,6.0,15.0,34,0.00,,,0.00,586.000000,,2013-03-08 20:01:00,
2013-03-08 14:11:00,45.0,18.0,-100.00,SW,214,6.0,15.0,34,0.00,,,0.00,586.000000,,2013-03-08 20:11:00,
2013-03-08 14:21:00,45.0,18.0,-100.00,SW,214,6.0,15.0,34,0.00,,,0.00,586.000000,,2013-03-08 20:21:00,
2013-03-08 14:32:00,45.0,18.0,-100.00,SW,214,6.0,15.0,34,0.00,,,0.00,586.000000,,2013-03-08 20:32:00,
2013-03-08 14:53:00,45.0,19.0,-100.00,SW,223,7.0,16.0,35,0.00,,,0.00,504.000000,,2013-03-08 20:53:00,
2013-03-08 15:02:00,45.0,19.0,-100.00,SW,223,7.0,16.0,35,0.00,,,0.00,504.000000,,2013-03-08 21:02:00,
2013-03-08 15:11:00,45.0,19.0,-100.00,SW,223,7.0,16.0,35,0.00,,,0.00,504.000000,,2013-03-08 21:11:00,
2013-03-08 15:21:00,45.0,19.0,-100.00,SW,223,7.0,16.0,35,0.00,,,0.00,504.000000,,2013-03-08 21:21:00,
2013-03-08 15:32:00,45.0,19.0,-100.00,SW,223,7.0,16.0,35,0.00,,,0.00,504.000000,,2013-03-08 21:32:00,
2013-03-08 16:01:00,45.0,19.0,-100.00,SSW,211,6.0,17.0,35,0.00,,,0.00,432.000000,,2013-03-08 22:01:00,
2013-03-08 16:11:00,45.0,19.0,-100.00,SSW,211,6.0,17.0,35,0.00,,,0.00,432.000000,,2013-03-08 22:11:00,
2013-03-08 16:22:00,45.0,19.0,-100.00,SSW,211,6.0,17.0,35,0.00,,,0.00,432.000000,,2013-03-08 22:22:00,
2013-03-08 16:32:00,45.0,19.0,-100.00,SSW,211,6.0,17.0,35,0.00,,,0.00,432.000000,,2013-03-08 22:32:00,
2013-03-08 17:01:00,42.0,19.0,-100.00,SSW,210,5.0,14.0,40,0.00,,,0.00,256.000000,,2013-03-08 23:01:00,
2013-03-08 17:12:00,42.0,19.0,-100.00,SSW,210,5.0,14.0,40,0.00,,,0.00,256.000000,,2013-03-08 23:12:00,
2013-03-08 17:22:00,42.0,19.0,-100.00,SSW,210,5.0,14.0,40,0.00,,,0.00,256.000000,,2013-03-08 23:22:00,
2013-03-08 17:32:00,42.0,19.0,-100.00,SSW,210,5.0,14.0,40,0.00,,,0.00,256.000000,,2013-03-08 23:32:00,
2013-03-08 17:53:00,37.0,19.0,-100.00,SSW,210,3.0,7.0,47,0.00,,,0.00,50.000000,,2013-03-08 23:53:00,
2013-03-08 18:02:00,37.0,19.0,-100.00,SSW,210,3.0,7.0,47,0.00,,,0.00,50.000000,,2013-03-09 00:02:00,
2013-03-08 18:11:00,37.0,19.0,-100.00,SSW,210,3.0,7.0,47,0.00,,,0.00,50.000000,,2013-03-09 00:11:00,
2013-03-08 18:22:00,37.0,19.0,-100.00,SSW,210,3.0,7.0,47,0.00,,,0.00,50.000000,,2013-03-09 00:22:00,
2013-03-08 18:32:00,37.0,19.0,-100.00,SSW,210,3.0,7.0,47,0.00,,,0.00,50.000000,,2013-03-09 00:32:00,
2013-03-08 19:01:00,32.0,19.0,-100.00,SW,236,2.0,4.0,59,0.00,,,0.00,4.000000,,2013-03-09 01:01:00,
2013-03-08 19:12:00,32.0,19.0,-100.00,SW,236,2.0,4.0,59,0.00,,,0.00,4.000000,,2013-03-09 01:12:00,
2013-03-08 19:22:00,32.0,19.0,-100.00,SW,236,2.0,4.0,59,0.00,,,0.00,4.000000,,2013-03-09 01:22:00,
2013-03-08 19:32:00,32.0,19.0,-100.00,SW,236,2.0,4.0,59,0.00,,,0.00,4.000000,,2013-03-09 01:32:00,
2013-03-08 21:52:00,30.0,19.0,-100.00,SW,224,3.0,9.0,64,-99.99,,,0.00,1.000000,,2013-03-09 03:52:00,
2013-03-08 22:01:00,30.0,19.0,-100.00,SW,224,3.0,9.0,64,-99.99,,,0.00,1.000000,,2013-03-09 04:01:00,
2013-03-08 22:11:00,30.0,19.0,-100.00,SW,224,3.0,9.0,64,-99.99,,,0.00,1.000000,,2013-03-09 04:11:00,
2013-03-08 22:22:00,30.0,19.0,-100.00,SW,224,3.0,9.0,64,-99.99,,,0.00,1.000000,,2013-03-09 04:22:00,
2013-03-08 22:32:00,30.0,19.0,-100.00,SW,224,3.0,9.0,64,-99.99,,,0.00,1.000000,,2013-03-09 04:32:00,
2013-03-08 22:52:00,30.0,21.0,-100.00,SW,229,4.0,8.0,69,0.00,,,0.00,1.000000,,2013-03-09 04:52:00,
2013-03-08 23:02:00,30.0,21.0,-100.00,SW,229,4.0,8.0,69,0.00,,,0.00,1.000000,,2013-03-09 05:02:00,
2013-03-08 23:12:00,30.0,21.0,-100.00,SW,229,4.0,8.0,69,0.00,,,0.00,1.000000,,2013-03-09 05:12:00,
2013-03-08 23:22:00,30.0,21.0,-100.00,SW,229,4.0,8.0,69,0.00,,,0.00,1.000000,,2013-03-09 05:22:00,
2013-03-08 23:31:00,30.0,21.0,-100.00,SW,229,4.0,8.0,69,0.00,,,0.00,1.000000,,2013-03-09 05:31:00,
2013-03-08 23:53:00,29.0,21.0,-100.00,SW,218,4.0,10.0,72,0.00,,,0.00,1.000000,,2013-03-09 05:53:00,